#timestamp,LO_Frequency,Hit,StdDev 
1460156415.3,286046999.3,N
1460156435.1,286046998.4,N
1460156455.9,286047002.7,N
1460156475.7,286047000.7,N
1460156495.5,286046998.3,N
1460156515.4,286046997.8,N
1460156535.2,286046999.3,N
1460156555.0,286047000.3,N
1460156555.9,286047000.3,N
1460156575.8,286046997.0,N
1460156595.6,286046997.2,N
1460156615.4,286047001.2,N
1460156635.3,286047001.0,N
1460156655.1,286047000.4,N
1460156656.0,286047000.4,N
1460156675.8,286047001.1,N
1460156695.7,286047000.7,N
1460156715.5,286046999.2,N
1460156735.3,286046995.8,N
1460156755.1,286046996.2,N
1460156775.9,286046995.3,N
1460156795.7,286046995.0,N
1460156815.5,286046995.3,N
1460156835.4,286046997.2,N
1460156855.2,286046997.1,N
1460156875.0,286046996.9,N
1460156875.9,286046996.9,N
1460156895.8,286046994.9,N
1460156915.6,286046998.7,N
1460156935.4,286046999.2,N
1460156955.3,286046997.9,N
1460156975.1,286046996.0,N
1460156976.0,286046996.0,N
1460156995.8,286046996.0,N
1460157015.7,286046997.6,N
1460157035.5,286046997.1,N
1460157055.3,286046999.7,N
1460157075.1,286047002.8,N
1460157095.9,286047000.0,N
1460157115.7,286046998.2,N
1460157135.5,286046997.0,N
1460157155.4,286046996.8,N
1460157175.2,286046995.7,N
1460157195.0,286046997.5,N
1460157195.9,286046997.5,N
1460157215.8,286046997.5,N
1460157235.6,286046997.6,N
1460157255.4,286046997.7,N
1460157275.3,286046997.2,N
1460157295.1,286046997.2,N
1460157296.0,286046997.2,N
1460157315.8,286046998.9,N
1460157335.7,286046995.6,N
1460157355.5,286046995.8,N
1460157375.3,286046999.5,N
1460157395.2,286046999.1,N
1460157415.9,286046999.3,N
1460157435.7,286046998.9,N
1460157455.5,286046997.0,N
1460157475.4,286046999.4,N
1460157495.2,286046999.0,N
1460157515.0,286046999.4,N
1460157515.9,286046999.4,N
1460157535.8,286046999.4,N
1460157555.6,286047000.7,N
1460157575.4,286046999.0,N
1460157595.3,286046998.9,N
1460157615.1,286047000.1,N
1460157635.8,286046996.6,N
1460157655.7,286046999.3,N
1460157675.5,286046998.0,N
1460157695.3,286046997.6,N
1460157715.2,286046999.5,N
1460157735.9,286046997.5,N
1460157755.7,286046993.7,Y
1460157775.6,286046996.4,P
1460157795.4,286046997.5,N
1460157815.2,286046995.6,P
1460157835.1,286046997.6,N
1460157836.0,286046997.6,N
1460157855.8,286046998.5,N
1460157875.6,286047000.5,N
1460157895.4,286047000.4,N
1460157915.3,286047000.5,N
1460157935.1,286046994.9,Y
1460157955.9,286046996.7,P
1460157975.7,286046996.8,P
1460157995.5,286046998.6,N
1460158015.3,286047002.1,N
1460158035.2,286047002.8,N
1460158055.0,286047000.3,N
1460158055.9,286047000.3,N
1460158075.7,286046999.0,N
1460158095.6,286046998.2,N
1460158115.4,286047001.2,N
1460158135.2,286046998.9,N
1460158155.1,286047000.4,N
1460158156.0,286047000.4,N
1460158175.8,286047000.1,N
1460158195.6,286047001.0,N
1460158215.5,286047002.2,N
1460158235.3,286047002.8,N
1460158255.1,286047001.9,N
1460158275.8,286047000.5,N
1460158295.7,286047001.3,N
1460158315.5,286047004.1,N
1460158335.3,286046999.8,N
1460158355.2,286046999.8,N
1460158375.9,286047001.3,N
1460158395.7,286047000.3,N
1460158415.6,286046999.0,N
1460158435.4,286046999.0,N
1460158455.2,286046999.1,N
1460158475.1,286046996.6,N
1460158476.0,286046996.6,N
1460158495.8,286046997.7,N
1460158515.6,286046996.6,N
1460158535.5,286046997.4,N
1460158555.3,286046995.8,N
1460158575.1,286046997.9,N
1460158595.9,286046997.4,N
1460158615.7,286046995.3,N
1460158635.5,286046993.8,N
1460158655.3,286046993.5,N
1460158675.2,286046997.6,N
1460158695.0,286046997.6,N
1460158695.9,286046997.6,N
1460158715.7,286046993.5,N
1460158735.6,286046997.6,N
1460158755.4,286046994.9,N
1460158775.2,286046997.5,N
1460158795.1,286046995.1,N
1460158796.0,286046995.1,N
1460158815.8,286046995.9,N
1460158835.6,286046993.7,N
1460158855.5,286046995.0,N
1460158875.3,286046995.3,N
1460158895.1,286046999.2,N
1460158915.9,286046999.4,N
1460158935.7,286046998.8,N
1460158955.5,286046995.6,N
1460158975.4,286046994.1,Y
1460158995.2,286046995.0,P
1460159015.0,286046996.9,P
1460159015.9,286046996.9,P
1460159035.8,286046997.0,Y
1460159055.6,286047000.1,P
1460159075.4,286047001.8,N
1460159095.3,286047004.0,N
1460159115.1,286047005.5,N
1460159116.0,286047005.5,N
1460159135.8,286047003.7,N
1460159155.7,286047005.1,N
1460159175.5,286047004.5,N
1460159195.3,286047004.8,N
1460159215.1,286047005.2,N
1460159235.9,286047006.4,N
1460159255.7,286047003.2,N
1460159275.5,286047001.8,N
1460159295.4,286047002.9,N
1460159315.2,286047003.4,N
1460159335.0,286047005.4,N
1460159335.9,286047005.4,N
1460159355.8,286047003.1,N
1460159375.6,286047003.1,N
1460159395.4,286047005.4,N
1460159415.3,286047009.2,Y
1460159435.1,286047003.6,P
1460159436.0,286047003.6,P
1460159455.8,286046999.9,P
1460159475.7,286047002.6,N
1460159495.5,286047002.2,N
1460159515.3,286047002.2,N
1460159535.2,286047004.0,Y
1460159555.9,286047002.5,P
1460159575.7,286047001.5,P
1460159595.5,286047002.1,P
1460159615.4,286047001.8,Y
1460159635.2,286046998.7,P
1460159655.1,286047000.5,N
1460159656.0,286047000.5,N
1460159675.8,286046999.6,N
1460159695.6,286046995.2,Y
1460159715.5,286046995.3,P
1460159735.3,286046997.7,N
1460159755.1,286046997.7,N
1460159775.9,286046995.3,N
1460159795.7,286046996.2,N
1460159815.5,286046994.4,Y
1460159835.4,286046998.0,P
1460159855.2,286046997.1,P
1460159875.0,286046999.3,N
1460159875.9,286046999.3,N
1460159895.8,286046996.6,Y
1460159915.6,286046997.5,P
1460159935.4,286046997.5,P
1460159955.2,286046996.5,P
1460159975.1,286046998.9,N
1460159976.0,286046998.9,N
1460159995.8,286046998.9,N
